Regional Weather Roundup
Issued by NWS

Home | Current Version | Previous Version | Text Only | Print | Product List | Glossary Off
Versions: 1 2 3 4 5 6 7 8 9 10 11 12 13 14 15 16 17 18 19 20 21 22 23 24 25 26 27 28 29 30 31 32 33 34 35 36 37 38 39 40 41 42 43 44 45 46 47 48 49 50

000
ASUS45 KTFX 291310
RWRMT
MONTANA REGIONAL WEATHER ROUNDUP
NATIONAL WEATHER SERVICE GREAT FALLS MT
700 AM MDT THU JUN 29 2017

NOTE: "FAIR" INDICATES FEW OR NO CLOUDS BELOW 12000 FEET WITH NO
SIGNIFICANT WEATHER AND/OR OBSTRUCTIONS TO VISIBILITY.

MTZ001>007-043-291400-
WEST OF THE DIVIDE

CITY           SKY/WX    TMP DP  RH WIND       PRES   REMARKS
KALISPELL      CLOUDY    58  47  66 N10       30.03R
MISSOULA       CLOUDY    58  44  60 SE6       30.04R
BUTTE          CLOUDY    43  37  79 CALM      30.09R
MULLAN PASS    CLOUDY    44  40  85 SE3       30.10R
ANACONDA         N/A     45  34  65 SW5       30.08R
DEER LODGE       N/A     46  41  81 NW3       30.09R
EUREKA           N/A     48  46  93 CALM      30.07R
HAMILTON         N/A     50  43  76 CALM      30.05R
$$

MTZ008-052>055-291400-
SOUTHWEST MONTANA

CITY           SKY/WX    TMP DP  RH WIND       PRES   REMARKS
BOZEMAN        SUNNY     48  45  89 N5        30.05R
DILLON         PTSUNNY   49  41  74 SE3       30.05R
W YELLOWSTONE  CLOUDY    37  37 100 CALM      30.13R
ENNIS          MOSUNNY   50  45  81 S9        30.10S
THREE FORKS      N/A     50  46  85 CALM      30.03R
$$

MTZ009-010-012-014-046-048-049-054-291400-
EAST SLOPES AND CENTRAL MONTANA

CITY           SKY/WX    TMP DP  RH WIND       PRES   REMARKS
CUT BANK       PTSUNNY   50  45  83 NW15      30.08R
GREAT FALLS    CLOUDY    53  45  74 NW6       30.09R
MALMSTROM AFB  CLOUDY    54  47  76 W8        30.08R
HELENA         CLOUDY    57  45  64 W8        30.06R
CHOTEAU          N/A     52  48  87 NW5       30.11R
$$

MTZ011-013-016-021-045-047-050-051-291400-
NORTH CENTRAL MONTANA

CITY           SKY/WX    TMP DP  RH WIND       PRES   REMARKS
HAVRE          PTSUNNY   57  49  74 W8        30.01R
LEWISTOWN      MOSUNNY   50  43  77 W7        30.06R
N BAR RANCH      N/A     52  41  66 NW14G24   30.04R
CHINOOK          N/A     55  48  76 W13       29.99R
FORT BENTON      N/A    N/A N/A N/A CALM      30.07R
$$

MTZ017>020-022>027-061-062-291400-
NORTHEAST MONTANA

CITY           SKY/WX    TMP DP  RH WIND       PRES   REMARKS
GLASGOW        SUNNY     54  46  74 NW12      29.87R
JORDAN           N/A     59  48  67 NW10      29.89R
SIDNEY         CLOUDY    59  48  67 CALM      29.81R
WOLF POINT     CLOUDY    57  46  66 SW5       29.84R
MALTA          SUNNY     59  48  67 NW10G20   29.92R
PLENTYWOOD       N/A     54  48  82 CALM      29.84R
POPLAR           N/A     55  46  71 NE3       29.83S
$$

MTZ028>42-056>058-291400-
SOUTHCENTRAL AND SOUTHEAST MONTANA

CITY           SKY/WX    TMP DP  RH WIND       PRES   REMARKS
BAKER          CLOUDY    60  51  72 NW3       29.84R
BILLINGS       CLOUDY    61  42  49 NW17      29.97R
LIVINGSTON     CLOUDY    48  44  86 W10       30.04R
MILES CITY     PTSUNNY   60  48  64 NW7       29.85R
BIG TIMBER     PTSUNNY   50  43  76 W17       30.05R
LAUREL           N/A     59  42  53 CALM      29.97R
ROUNDUP          N/A     58  40  51 W1        29.90R
$$

REGIONAL REPORTS...DAKOTAS

CITY           SKY/WX    TMP DP  RH WIND       PRES   REMARKS
WILLISTON      MOSUNNY   61  49  64 NW3       29.81S
MINOT          PTSUNNY   61  52  72 SW3       29.80S
DICKINSON      PTSUNNY   59  47  64 E7        29.79S
BEACH            N/A     55  48  76 W3        29.84R
CROSBY         PTSUNNY   55  55 100 CALM      29.85R
TIOGA            N/A     57  55  94 CALM      29.83S
WATFORD CITY     N/A     55  50  82 CALM      29.80S
BISMARCK       CLOUDY    60  57  89 CALM      29.81R
GRAND FORKS    FOG       61  61 100 N6        29.75R VSB 1/8
FARGO          CLOUDY    63  60  90 N5        29.77R
BUFFALO SD       N/A     57  55  93 W8        29.80R
RAPID CITY     CLOUDY    61  51  70 NW20G25   29.87R
$$

REGIONAL REPORTS...WYOMING/IDAHO/WASHINGTON

CITY           SKY/WX    TMP DP  RH WIND       PRES   REMARKS
GILLETTE       SUNNY     55  51  86 NW5       29.95S
SHERIDAN       SUNNY     52  48  86 CALM      29.97R
BUFFALO WY     SUNNY     56  44  64 N5        29.99R
CODY           CLOUDY    52  42  69 S3        30.04S
YELLOWSTONE LA   N/A     33  33 100 CALM      30.16S
IDAHO FALLS    MOSUNNY   50  44  80 E9        30.04R
SALMON         MOCLDY    50  45  81 CALM      30.04R
BOISE          CLEAR     56  38  50 CALM      30.00R
SPOKANE        FOG       51  51 100 NE7       30.04R VSB 1/2
$$

REGIONAL REPORTS...ALBERTA

CITY           SKY/WX    TMP DP  RH WIND       PRES   REMARKS
EDMONTON       SUNNY     50  48  93 W3        30.04R
CALGARY        PTSUNNY   54  46  76 N12       30.10R
LETHBRIDGE     PTSUNNY   55  50  82 NW10      30.07R
MEDICINE HAT   CLOUDY    55  52  88 NW12      30.00R
WATERTON GATE    N/A     48  46  93 CALM        N/A
CARDSTON         N/A     50  46  87 NW7         N/A
ONEFOUR          N/A     52  48  87 NW18        N/A
$$

REGIONAL REPORTS...SASKATCHEWAN

CITY           SKY/WX    TMP DP  RH WIND       PRES   REMARKS
SWIFT CURRENT  FOG       52  50  93 NW10      29.91R VSB 1/2
REGINA         PTSUNNY   57  52  82 NW6       29.86R
SASKATOON      PTSUNNY   50  45  81 N15       29.94R
CYPRESS HILLS    N/A     48  46  93 NW8         N/A
VAL MARIE        N/A     54  48  82 N3          N/A
ROCKGLEN         N/A     55  48  76 N6          N/A
ASSINIBOIA       N/A     50  46  87 S3          N/A
$$



USA.gov is the U.S. government's official web portal to all federal, state and local government web resources and services.